THOR ABLESTAR DEB, 19293

Orbit data source: Space-Track

THOR ABLESTAR DEB, 19293 is space debris in LEO originally from a launch on Thu, 29 Jun 1961 UTC launched from the Air Force Eastern Test Range (AFETR). Debris objects in space refer to the collection of defunct objects orbiting the Earth. Examples of debris include non-operational satellites, rocket bodies, and fragments generated from explosions, collisions, or faulty payload assembly.

Loading next visibility...
Identifier
19293, 1961-015MA
Orbit
LEO
Country
Flag of USUS
Related business
Manufacturer
Unknown
Mission
Spacecraft
Bus & Motor
Unknown
Mass
Unknown
Launch date (UTC)
1961-06-29 (65 years ago)
Launch vehicle
Unknown
Launch site
Air Force Eastern Test Range (AFETR)
Object type
Payload
Rocket body
Debris
Shape & HBR
Unknown shape, 0.1 m
Radar Cross Section
Small (<0.1 m²)

Expand to show TLE details & history
Last TLE update: 3 days ago

TLE from 3 days ago
0 THOR ABLESTAR DEB
1 19293U 61015MA  26170.63092384  .00000482  00000-0  11287-2 0  9993
2 19293  66.9835 246.1451 0338603 197.9898 316.3310 13.12709603828052
Epoch: 2026-06-19T15:08Z
TLE epoch observation values (Epoch: 2026-06-19T15:08:31.819Z)
Latitude
26.04725°
Longitude
-80.76499°
Altitude
1,033.356 km
Speed
7.425 km/s
True Right ascension
03h 36m 53s
True Declination
25° 55' 01"
Sunlit
Object was in daylight at epoch
Visualization orbit readout
Latitude
Unknown
Longitude
Unknown
Altitude
Unknown
Speed
Unknown
Apparent Right ascension
Unknown
Apparent Declination
Unknown
Sunlit
N/A
Visualization observer readout
Local Sidereal Time
05:33:07
Azimuth
Unknown
Elevation
Unknown
Doppler factor
Unknown
Orbital elements
Apogee altitude
1,468.102 km
Perigee altitude
954.152 km
Semi-major axis
7,589.264 km
Eccentricity
0.03386
Inclination
66.9835°
RAAN
246.1451°
Arg. of periapsis
197.9898°
True anomaly
313.56839°
Mean anomaly
316.331°
Eccentric anomaly
314.95817°
Mean motion
3.28279 °/min
Orbital period
109.66 mins
BSTAR
0.0011287
Loading maneuver chart data...
Computing Atmospheric mass density...

Documentation

Showing up to 5 results
|